GAOFEN-2

Last updated on Mon Sep 07 2026 00:02:45 GMT+0000 (Coordinated Universal Time)

1 40118U 14049A 26249.59285532 .00000355 00000+0 52732-4 0 9999 2 40118 98.0036 313.6935 0006839 340.7166 19.3787 14.80989542651282
UTC large
Height (km)
Speed (km/s)
/
Latitude / Longitude
Inclination (degrees)
Orbital Period (minutes)
Azimuth
Elevation
Range (km)
Doppler Factor

Next 0 passes for location: London (51.5072 / 0.1276)

No passes found over London.
GAOFEN-2